Tracking 35237 objects as of 6-Sep-2026
HD Live streaming from Space Station
objects crossing your sky now

STARLINK-2484


STARLINK-2484 is no longer on orbit
STARLINK-2484 is classified as:


NORAD ID: 48141
Int'l Code: 2021-027BB
Launch date: April 7, 2021
Source: United States (US)
Launch site: AIR FORCE EASTERN TEST RANGE (AFETR)
Decay date: 2025-02-16
Your satellite tracking list
Your tracking list is empty




NASA's NSSDC Master Catalog

Two Line Element Set (TLE):
1 48141U 21027BB  25046.60319642  .02781148  11851-4  13232-2 0  9992
2 48141  53.0376  80.1907 0004562  28.5901 114.8517 16.20711648214089
Source of the keplerian elements: AFSPC